Cleveland Burke, OH

11:56 PM EDT on April 25, 2018 (GMT -0400)
Burke Lakefront

Weather History for KBKL - March, 2012

Change the Weather History Date:

Thursday, March 1, 2012

  Actual Average Record
Temperature  
Mean Temperature 42 °F -  
Max Temperature 44 °F 38 °F 68 °F (1997)
Min Temperature 39 °F 27 °F 17 °F (2009)
Degree Days  
Heating Degree Days 24    
Moisture  
Dew Point 31 °F    
Average Humidity 70    
Maximum Humidity 82    
Minimum Humidity 62    
Precipitation  
Precipitation 0.00 in - - ()
Sea Level Pressure  
Sea Level Pressure 29.78 in    
Wind  
Wind Speed 14 mph (WSW)    
Max Wind Speed 25 mph    
Max Gust Speed 32 mph    
Visibility 10 miles    
Events Rain    
Averages and records for this station are not official NWS values.
T = Trace of Precipitation, MM = Missing Value Source: NWS Daily Summary

Daily Weather History Graph

Daily Weather History Graph

Search for Another Location

Airport or City:

Astronomy

Mar. 01, 2012 Rise Set
Actual Time 7:00 AM EST 6:17 PM EST
Civil Twilight 6:32 AM EST 6:45 PM EST
Nautical Twilight 6:00 AM EST 7:17 PM EST
Astronomical Twilight 5:28 AM EST 7:49 PM EST
Moon 11:33 AM EST (3/1) 2:01 AM EST (3/1)
Length of Visible Light 12h 12m
Length of Day
11h 17m
First Quarter, 56% of the Moon is Illuminated
Mar 1
First Quarter
Mar 8
Full
Mar 14
Last Quarter
Mar 22
New
Mar 30
First Quarter

Hourly Weather History & Observations

Time (EST) Temp. Windchill Dew Point Humidity Pressure Visibility Wind Dir Wind Speed Gust Speed Precip Events Conditions
12:53 AM 41.0 °F 35.2 °F 35.1 °F 79% 29.57 in 10.0 mi SW 9.2 mph - 0.00 in   Overcast
1:53 AM 44.1 °F 34.8 °F 35.1 °F 71% 29.58 in 10.0 mi West 25.3 mph 32.2 mph N/A   Overcast
2:53 AM 42.1 °F 33.9 °F 30.9 °F 65% 29.60 in 10.0 mi West 17.3 mph 28.8 mph N/A   Overcast
3:53 AM 39.9 °F 32.9 °F 33.1 °F 77% 29.61 in 10.0 mi WSW 11.5 mph - N/A   Overcast
4:53 AM 41.0 °F 32.2 °F 28.9 °F 62% 29.64 in 10.0 mi WSW 18.4 mph 31.1 mph N/A   Overcast
5:53 AM 39.9 °F 30.8 °F 28.9 °F 65% 29.67 in 10.0 mi WSW 18.4 mph 26.5 mph N/A   Overcast
6:18 AM 39.2 °F 29.6 °F 28.4 °F 65% 29.67 in 10.0 mi WSW 19.6 mph 26.5 mph N/A   Overcast
6:53 AM 39.9 °F 31.1 °F 30.0 °F 68% 29.69 in 10.0 mi WSW 17.3 mph - N/A   Overcast
7:53 AM 39.9 °F 31.8 °F 30.0 °F 68% 29.71 in 10.0 mi WSW 15.0 mph - N/A   Overcast
8:25 AM 39.2 °F 30.8 °F 30.2 °F 70% 29.72 in 10.0 mi WSW 15.0 mph - N/A   Overcast
8:53 AM 39.9 °F 31.4 °F 30.0 °F 68% 29.73 in 10.0 mi WSW 16.1 mph - N/A   Overcast
9:18 AM 39.2 °F 30.5 °F 30.2 °F 70% 29.73 in 10.0 mi WSW 16.1 mph 25.3 mph N/A   Overcast
9:53 AM 39.9 °F 32.1 °F 30.9 °F 70% 29.75 in 10.0 mi WSW 13.8 mph - N/A   Overcast
10:34 AM 39.2 °F 30.5 °F 30.2 °F 70% 29.75 in 10.0 mi West 16.1 mph - N/A   Overcast
10:53 AM 39.9 °F 30.8 °F 30.9 °F 70% 29.77 in 10.0 mi West 18.4 mph - N/A   Overcast
11:53 AM 41.0 °F 33.5 °F 30.9 °F 67% 29.80 in 10.0 mi West 13.8 mph - N/A   Overcast
12:53 PM 41.0 °F 31.9 °F 30.2 °F 65% 29.80 in 10.0 mi West 19.6 mph - N/A   Overcast
1:53 PM 39.0 °F 31.8 °F 34.0 °F 82% 29.82 in 7.0 mi West 11.5 mph - 0.00 in Rain Light Rain
2:53 PM 39.9 °F 34.5 °F 34.0 °F 79% 29.84 in 10.0 mi West 8.1 mph - 0.00 in   Overcast
3:53 PM 41.0 °F 33.9 °F 32.0 °F 70% 29.85 in 10.0 mi West 12.7 mph - N/A   Overcast
4:53 PM 39.9 °F 34.5 °F 32.0 °F 73% 29.86 in 10.0 mi WSW 8.1 mph - N/A   Overcast
5:10 PM 39.2 °F 34.2 °F 33.8 °F 81% 29.86 in 10.0 mi WSW 6.9 mph - N/A   Overcast
5:17 PM 39.2 °F 34.2 °F 32.0 °F 75% 29.86 in 10.0 mi WSW 6.9 mph - N/A   Overcast
5:53 PM 41.0 °F 34.7 °F 32.0 °F 70% 29.88 in 10.0 mi WSW 10.4 mph - N/A   Overcast
6:53 PM 41.0 °F 35.2 °F 32.0 °F 70% 29.91 in 10.0 mi WSW 9.2 mph - N/A   Overcast
7:53 PM 41.0 °F 35.2 °F 32.0 °F 70% 29.92 in 10.0 mi WSW 9.2 mph - N/A   Overcast
8:53 PM 41.0 °F 34.7 °F 30.9 °F 67% 29.92 in 10.0 mi SW 10.4 mph - N/A   Overcast
9:53 PM 41.0 °F 35.2 °F 30.9 °F 67% 29.92 in 10.0 mi SW 9.2 mph - N/A   Overcast
10:51 PM 41.0 °F 35.2 °F 30.2 °F 65% 29.90 in 10.0 mi SW 9.2 mph - N/A   Overcast
10:53 PM 41.0 °F 35.8 °F 30.0 °F 65% 29.92 in 10.0 mi SW 8.1 mph - N/A   Overcast
11:53 PM 39.9 °F 35.8 °F 28.9 °F 65% 29.91 in 10.0 mi SSW 5.8 mph - N/A   Overcast